Flag for U.S.A. Weather past 2 weeks in Sheboygan, Wisconsin, U.S.A.

Now
72 °F

Sunny.


Feels Like: 75 °F
Forecast: 58 / 67 °F
Wind: 7 mph from Southwest

Location: Sheboygan County Memorial Airport

Current Time: Aug 28, 2015 at 12:31:29 PM

Latest Report: Aug 28, 2015 at 11:53 AM


Visibility: 10 mi

Pressure: 30.12 "Hg

Humidity: 68%

Dew point: 61 °F

Location of SheboyganLocation

Historic Weather in Sheboygan — Graph

°F

Sheboygan temperature yesterday

Maximum temperature yesterday: 72 °F (at 2:53 PM)
Minimum temperature yesterday: 50 °F (at 12:53 AM)
Average temperature yesterday: 61 °F

Past Weeks' High & Low Weather Summary

 TemperatureHumidityPressure
High89 °F (Aug 14, 2:53 PM)100% (Aug 18, 5:53 AM)30.20 "Hg (Aug 18, 5:53 AM)
Low49 °F (Aug 26, 11:53 PM)50% (Aug 14, 2:53 PM)29.56 "Hg (Aug 19, 9:53 AM)
Average67 °F79%29.95 "Hg
* Reported Aug 13 10:53 AM — Aug 28 10:53 AM, Sheboygan, Weather by CustomWeather, © 2015

Note: Actual official high and low records may vary slightly from our data, if they occured in-between our weather recording intervals... More about our weather records

Advertising

Sheboygan weather history for previous 24 hours

 ConditionsComfort  
Time TempWeatherWind HumidityBarometerVisibility
10:53 AM
Fri, Aug 28
69 °FSunny.7 mph73%30.13 "Hg10 mi
9:53 AM68 °FSunny.7 mph76%30.13 "Hg10 mi
8:53 AM64 °FSunny.7 mph84%30.13 "Hg7 mi
7:53 AM59 °FFog.3 mph90%30.13 "Hg4 mi
6:53 AM54 °FFog.No wind97%30.14 "Hg5 mi
5:53 AM51 °FFog.No wind96%30.13 "Hg6 mi
4:53 AM52 °FFog.No wind97%30.11 "Hg6 mi
3:53 AM55 °FClear.No wind90%30.10 "Hg9 mi
2:53 AM56 °FOvercast.3 mph90%30.11 "Hg10 mi
1:53 AM54 °FClear.3 mph90%30.11 "Hg10 mi
12:53 AM54 °FClear.No wind93%30.12 "Hg10 mi
11:53 PM
Thu, Aug 27
53 °FClear.5 mph93%30.12 "Hg10 mi
10:53 PM56 °FClear.No wind90%30.12 "Hg10 mi
9:53 PM56 °FClear.No wind90%30.13 "Hg10 mi
8:53 PM58 °FClear.3 mph84%30.13 "Hg10 mi
7:53 PM61 °FScattered clouds.8 mph78%30.13 "Hg10 mi
6:53 PM63 °FSunny.8 mph73%30.11 "Hg10 mi
5:53 PM66 °FSunny.13 mph68%30.12 "Hg10 mi
4:53 PM70 °FSunny.9 mph64%30.11 "Hg10 mi
3:53 PM71 °FSunny.10 mph63%30.11 "Hg10 mi
2:53 PM72 °FPartly sunny.8 mph64%30.13 "Hg10 mi
1:53 PM70 °FPartly sunny.9 mph66%30.15 "Hg10 mi
12:53 PM71 °FPassing clouds.9 mph68%30.16 "Hg10 mi
Weather by CustomWeather, © 2015

See weather overviewHow to use our weather pages